User: anonymous   Login
Location: Cortos
(40.7190°N, 4.5893°W)
Time: 08:37:41
(UTC+00:00)
Language:

SL-16 R/B - Orbit

View from above orbital plane
View from above orbital plane
View from above satellite
View from above satellite

Ground track
Ground track

The orbit data is extracted from the following two-line orbital elements,

1 31793U 07029B   20269.85293061 +.00000165 +00000-0 +11086-3 0  9995
2 31793 070.9768 035.4555 0001728 258.2990 228.1588 14.14430688683877
Epoch (UTC): 25 September 2020 20:28:13
Eccentricity: 0.0001728
inclination: 70.9768°
perigee height: 843 km
apogee height: 845 km
right ascension of ascending node: 35.4555°
argument of perigee: 258.2990°
revolutions per day: 14.14430688
mean anomaly at epoch: 228.1588°
orbit number at epoch: 68387

The dashed part of the orbit path shows where the satellite is in the earth's shadow,  

DLR